Starlink 3282

operational
NORAD ID: 50177 Int'l Des: 2021-125 Owner: SPXS Country: US Constellation: starlink
LEOCIRCULAR

Über Starlink 3282

Beschreibung wird geladen...

Live-Position

3D-Globus wird geladen...

Nächste Überflüge

Höhenverlauf

Altitude vs Time

uPlot chart will show altitude changes over time

Zweizeiliger Elementsatz

1 50177U 21125X 25352.15752013 -.00000511 00000-0 -14031-4 0 9994
2 50177 53.2172 255.1323 0001533 89.9243 270.1924 15.08835971224291
Epoch: 18. Dez. 2025 • Age: 9 hours

Aktueller Status

Höhe 559.4 km
Geschwindigkeit 7.58 km/s
Subsatellitenpunkt -53.37°S, 117.75°W
Startdatum 18. Dez. 2021
Alter 4 years
Typ internet

Technische Details

Klassifizierung Payload
Masse 290.00 kg
Trockenmasse 270.00 kg
Gesamtmasse 290.00 kg
Länge 0.20 m
Durchmesser 2.80 m
Spannweite 9.00 m
Form Box + pan
Hersteller SPXS
Bus-Typ Starlink
Phasenstatus In Orbit
Besitzer/Staat SPXS/US

Große Konstellationen

Loading constellations...